Regional Weather Roundup
Issued by NWS

Home | Current Version | Previous Version | Text Only | Print | Product List | Glossary On
Versions: 1 2 3 4 5 6 7 8 9 10 11 12 13 14 15 16 17 18 19 20 21 22 23 24 25 26 27
000
ASUS45 KBOU 050407
RWRCO

WEATHER ROUNDUP FOR COLORADO
NATIONAL WEATHER SERVICE DENVER/BOULDER CO
900 PM MST SUN DEC 04 2016

NOTE: "FAIR" INDICATES FEW OR NO CLOUDS BELOW 12000 FEET WITH NO
SIGNIFICANT WEATHER AND/OR OBSTRUCTIONS TO VISIBILITY.

COZ001>005-013-030-031-050500-
...NORTHWEST COLORADO...

CITY           SKY/WX    TMP DP  RH WIND       PRES   REMARKS
CRAIG          FAIR      26  16  65 VRB3      29.90F
HAYDEN         MOCLDY    27  14  59 SE7       29.88F WCI  19
MEEKER         FAIR      35  16  45 SW16      29.91F WCI  25
MOUNT WERNER   NOT AVBL
STEAMBOAT SPGS NOT AVBL
WALDEN         NOT AVBL
$$

COZ006>008-011-050500-
...WEST CENTRAL VALLEYS...

CITY           SKY/WX    TMP DP  RH WIND       PRES   REMARKS
GRAND JUNCTION FAIR      26  19  74 E6        30.01F WCI  19
MONTROSE       FAIR      25  18  74 S5        30.03F WCI  19
EAGLE          CLOUDY    28  16  60 E9        29.97F WCI  19
RIFLE          CLOUDY    31  20  63 CALM      30.01F
DELTA          CLOUDY    35  19  52 E6        30.02F WCI  30
NUCLA          FAIR      28  14  54 SE9       30.05F WCI  20
$$

COZ017>023-064>068-050500-
...SOUTHWEST COLORADO...

CITY           SKY/WX    TMP DP  RH WIND       PRES   REMARKS
DURANGO        FAIR      23  18  81 E3        30.07F
CORTEZ         FAIR      22  18  85 SE5       30.08S WCI  16
PAGOSA SPRINGS FAIR      22  19  90 CALM      30.08F
TELLURIDE      NOT AVBL
WOLF CREEK PAS NOT AVBL
$$

COZ009-010-012-014-032>034-037-058>063-050500-
...CENTRAL COLORADO...

CITY           SKY/WX    TMP DP  RH WIND       PRES   REMARKS
ASPEN          FAIR      24  16  71 S5        29.95F WCI  18
BUENA VISTA    FAIR      36  13  38 W15G22    29.91S
COPPER MTN     NOT AVBL
BERTHOUD PASS  NOT AVBL
COTTONWOOD PAS NOT AVBL
GUNNISON       FAIR      10   6  84 E3        30.06F
KREMMLING      NOT AVBL
LEADVILLE      CLOUDY    28  12  51 NE7       29.95F WCI  21
SALIDA         FAIR      41  13  31 SW22G30   29.97S
SUNLIGHT       NOT AVBL
WILKERSON PASS NOT AVBL
$$

COZ069>075-050500-
...SAN LUIS VALLEY/SANGRE DE CRISTO MOUNTAINS...

CITY           SKY/WX    TMP DP  RH WIND       PRES   REMARKS
ALAMOSA        FAIR       8   5  87 SW5       30.03S WCI   0
LA VETA PASS   NOT AVBL
SAGUACHE       NOT AVBL
$$

COZ035-036-038>040-050500-
...NORTHERN COLORADO FRONT RANGE...

CITY           SKY/WX    TMP DP  RH WIND       PRES   REMARKS
DENVER INTL AP FAIR      31  11  43 S12       29.74F WCI  22
DMNS CITY PARK   N/A     37  10  33 E12G18    29.73F
AURORA         PTCLDY    35  11  36 S12       29.75F WCI  27
FRONT RANGE AP PTCLDY    32  12  43 S7        29.75F WCI  26
ERIE MUNI ARPT NOT AVBL
BOULDER MUN AP FAIR      45  14  29 CALM      29.71F
CENTENNIAL     FAIR      37  12  35 S9        29.75F
BROOMFIELD     PTCLDY    41  10  28 CALM      29.75F
FORT COLLINS   FAIR      50  18  27 W22G37    29.71F
LONGMONT       NOT AVBL
$$

COZ041-046-047-076>085-087-088-050500-
...PIKES PEAK/PALMER DIVIDE AND SOUTHERN FOOTHILLS...

CITY           SKY/WX    TMP DP  RH WIND       PRES   REMARKS
COLO. SPRINGS  FAIR      30   8  39 N6        29.83F WCI  24
A. F. ACADEMY  FAIR      25  11  56 NE3       29.81F
SCHRIEVER AFB  NOT AVBL
ELLICOTT       FAIR     N/A N/A N/A CALM      29.81F
FALCON         FAIR      32   7  35 CALM      29.83F
FORT CARSON    FAIR      28  11  48 NW9       29.81F WCI  20
LIMON          FAIR      13   6  74 N6        29.81F WCI   4
MONUMENT HILL  NOT AVBL
TRINIDAD       FAIR      40  15  36 NW12      29.86R
$$

COZ042>045-048>051-090-091-050500-
...NORTHEAST COLORADO...

CITY           SKY/WX    TMP DP  RH WIND       PRES   REMARKS
GREELEY ARPT   FAIR      31  16  54 NE8       29.74F WCI  23
AKRON          FAIR      39  11  31 SW18G26   29.73F
BURLINGTON     FAIR      33  13  43 S15       29.80F WCI  23
WRAY           NOT AVBL
STERLING       NOT AVBL
HOLYOKE        FAIR      37  18  44 SW14      29.74F
FORT MORGAN    FAIR      33  14  46 SW7       29.75S WCI  26
$$

COZ086-089-092>099-050500-
...SOUTHEAST COLORADO...

CITY           SKY/WX    TMP DP  RH WIND       PRES   REMARKS
PUEBLO         FAIR      25  11  55 SW3       29.83S
LA JUNTA       FAIR      35  15  44 W15       29.81S WCI  25
LAMAR          FAIR      31  15  52 CALM      29.80F
SPRINGFIELD      N/A     31  17  56 SW12      29.84F WCI  22
$$




USA.gov is the U.S. government's official web portal to all federal, state and local government web resources and services.